Location: Griffith Observatory
(34.1130°N, 118.3015°W)
Time: 11:17:20
(UTC-07:00)

ACS3 Solar Sail - Visible Passes

Search period start: 07 October 2024 00:00
Search period end: 17 October 2024 00:00
Orbit: 962 x 1035 km, 97.4° (Epoch: 07 October)

Date Brightness Start Highest point End Pass type
(mag) Time Alt. Az. Time Alt. Az. Time Alt. Az.
07 Oct 3.4 19:22:06 14° ENE 19:23:01 14° ENE 19:26:03 10° NE visible
07 Oct 2.2 21:07:15 62° NNW 21:07:15 62° NNW 21:12:29 10° NNW visible
08 Oct 2.8 19:54:17 26° ENE 19:54:17 26° ENE 19:59:21 10° NNE visible
08 Oct 3.1 21:39:26 37° WNW 21:39:26 37° WNW 21:43:51 10° NNW visible
09 Oct 2.2 20:26:26 46° NE 20:26:26 46° NE 20:31:42 10° N visible
09 Oct 4.0 22:11:36 20° WNW 22:11:36 20° WNW 22:14:36 10° NW visible
10 Oct 3.5 19:13:26 12° ENE 19:14:13 12° ENE 19:16:28 10° NE visible
10 Oct 2.2 20:58:35 58° N 20:58:35 58° N 21:03:34 10° N visible
11 Oct 2.9 19:45:34 23° ENE 19:45:34 23° ENE 19:50:11 10° NNE visible
11 Oct 3.0 21:30:43 39° NW 21:30:43 39° NW 21:35:00 10° NNW visible
12 Oct 2.4 20:17:42 40° NE 20:17:42 40° NE 20:22:36 10° N visible
12 Oct 3.9 22:02:51 22° WNW 22:02:51 22° WNW 22:05:51 10° NW visible
13 Oct 3.6 19:04:39 10° ENE 19:05:18 10° ENE 19:06:02 10° NE visible
13 Oct 2.3 20:49:48 53° N 20:49:48 53° N 20:54:30 10° N visible
13 Oct 4.6 22:34:57 11° WNW 22:34:57 11° WNW 22:35:17 10° WNW visible
14 Oct 3.1 19:36:45 20° ENE 19:36:45 20° ENE 19:40:49 10° NNE visible
14 Oct 2.9 21:21:53 39° NW 21:21:53 39° NW 21:25:59 10° NNW visible
15 Oct 2.6 20:08:49 35° NE 20:08:49 35° NE 20:13:21 10° N visible
15 Oct 3.8 21:53:58 23° WNW 21:53:58 23° WNW 21:56:55 10° NW visible
16 Oct 2.4 20:40:53 47° N 20:40:53 47° N 20:45:18 10° N visible
16 Oct 4.5 22:26:02 12° WNW 22:26:02 12° WNW 22:26:47 10° WNW visible
